This is the latest recevied weather packets stored in our database for station/object K4AGR-13. If no packets are shown the sender has not sent any weather packets the latest 10 day(s).
| Time | Temp. | Humidity | Pressure | Rain* | Wind** | Luminosity | Snow |
|---|---|---|---|---|---|---|---|
| 1777721818 | 12.22° C | 97% | 1012.4 hPa | 1.27 mm | - | 8 W/m² | - |
| 1777721516 | 12.22° C | 97% | 1012.6 hPa | 1.27 mm | - | 2 W/m² | - |
| 1777721213 | 12.22° C | 97% | 1011.3 hPa | 0 mm | - | 6 W/m² | - |
| 1777720911 | 12.22° C | 97% | 1011.5 hPa | 1.78 mm | - | 4 W/m² | - |
| 1777720608 | 12.22° C | 97% | 1011.8 hPa | 3.05 mm | - | 4 W/m² | - |
| 1777720305 | 12.22° C | 97% | 1011.4 hPa | 4.32 mm | - | 3 W/m² | - |
| 1777720003 | 12.78° C | 97% | 1011.1 hPa | 7.87 mm | - | 1 W/m² | - |
| 1777719700 | 12.78° C | 97% | 1011.3 hPa | 7.87 mm | - | 1 W/m² | - |
| 1777719398 | 12.78° C | 97% | 1011.9 hPa | 7.87 mm | - | 0 W/m² | - |
| 1777719095 | 12.78° C | 97% | 1011.2 hPa | 6.1 mm | - | 0 W/m² | - |
| 1777718792 | 12.78° C | 97% | 1011.9 hPa | 3.05 mm | - | 0 W/m² | - |
| 1777718489 | 12.78° C | 97% | 1011.6 hPa | 1.78 mm | - | 0 W/m² | - |
| 1777718187 | 12.78° C | 97% | 1011.2 hPa | 1.27 mm | - | 0 W/m² | - |
| 1777717885 | 12.78° C | 97% | 1010.8 hPa | 4.32 mm | - | 0 W/m² | - |
| 1777717581 | 12.78° C | 97% | 1010.9 hPa | 6.6 mm | - | 0 W/m² | - |
| 1777717278 | 12.78° C | 96% | 1011.5 hPa | 6.6 mm | - | 0 W/m² | - |
| 1777716976 | 12.78° C | 96% | 1012 hPa | 6.1 mm | - | 0 W/m² | - |
| 1777716674 | 12.78° C | 96% | 1011.5 hPa | 7.87 mm | - | 0 W/m² | - |
| 1777716372 | 12.78° C | 96% | 1011.1 hPa | 7.11 mm | - | 0 W/m² | - |
| 1777716070 | 12.78° C | 96% | 1011.1 hPa | 8.89 mm | - | 0 W/m² | - |
| 1777715768 | 12.78° C | 96% | 1011.6 hPa | 6.6 mm | - | 0 W/m² | - |
| 1777715465 | 12.78° C | 96% | 1011.3 hPa | 4.83 mm | - | 0 W/m² | - |
| 1777715161 | 13.33° C | 96% | 1010.9 hPa | 4.32 mm | - | 0 W/m² | - |
| 1777714860 | 13.33° C | 96% | 1010.6 hPa | 1.27 mm | - | 0 W/m² | - |
| 1777714558 | 13.33° C | 96% | 1010.7 hPa | 0 mm | - | 0 W/m² | - |
* Rain latest hour (hover to see other rain measurements)
** Current wind speed in m/s (hover to see current wind gust speed)